Location: Asheville, NC
(35.6000°N, 82.5500°W)
Time: 23:08:25
(UTC-04:00)

CUTE 1.7 + AOD 2 - Pass Details

Date: 14 February 2018
Orbit: 594 x 614 km, 97.5° (Epoch: 20 May)

Event Time Altitude Azimuth Distance (km) Brightness Sun altitude
Rises 06:44:45 0° 23° (NNE) 2,840 ? -7.4°
Reaches altitude 10° 06:47:08 10° 34° (NE) 1,937 ? -6.9°
Maximum altitude 06:50:52 31° 97° (E) 1,067 ? -6.2°
Drops below altitude 10° 06:54:35 10° 160° (SSE) 1,934 ? -5.5°
Sets 06:56:57 0° 170° (S) 2,836 ? -5.0°
